#timestamp,LO_Frequency,Hit,Temp,Hum 
1479081615.6,286047114.2,N,0.0,0.0
1479081635.4,286047114.2,N,0.0,0.0
1479081655.2,286047114.4,N,0.0,0.0
1479081675.1,286047113.2,N,0.0,0.0
1479081676.0,286047113.2,N,0.0,0.0
1479081695.8,286047113.1,N,0.0,0.0
1479081715.6,286047110.3,N,0.0,0.0
1479081735.5,286047111.4,N,0.0,0.0
1479081755.3,286047108.9,N,0.0,0.0
1479081775.2,286047109.5,N,0.0,0.0
1479081795.9,286047107.0,N,0.0,0.0
1479081815.7,286047105.3,N,0.0,0.0
1479081835.6,286047105.7,N,0.0,0.0
1479081855.4,286047106.4,N,0.0,0.0
1479081875.2,286047105.1,N,0.0,0.0
1479081895.1,286047102.7,N,0.0,0.0
1479081896.0,286047102.7,N,0.0,0.0
1479081915.8,286047103.5,N,0.0,0.0
1479081935.6,286047101.1,N,0.0,0.0
1479081955.5,286047101.2,N,0.0,0.0
1479081975.3,286047101.1,N,0.0,0.0
1479081995.2,286047103.2,N,0.0,0.0
1479082015.9,286047101.2,N,0.0,0.0
1479082035.7,286047101.8,N,0.0,0.0
1479082055.6,286047099.5,N,0.0,0.0
1479082075.4,286047099.7,N,0.0,0.0
1479082095.2,286047099.9,N,0.0,0.0
1479082115.1,286047098.1,N,0.0,0.0
1479082116.0,286047098.1,N,0.0,0.0
1479082135.8,286047095.8,N,0.0,0.0
1479082155.7,286047096.3,N,0.0,0.0
1479082175.5,286047097.1,N,0.0,0.0
1479082195.3,286047097.1,N,0.0,0.0
1479082215.2,286047095.0,N,0.0,0.0
1479082235.0,286047095.2,N,0.0,0.0
1479082235.9,286047095.2,N,0.0,0.0
1479082255.8,286047092.9,N,0.0,0.0
1479082275.6,286047093.2,N,0.0,0.0
1479082295.4,286047091.0,N,0.0,0.0
1479082315.3,286047089.3,N,0.0,0.0
1479082335.1,286047090.6,N,0.0,0.0
1479082336.0,286047090.6,N,0.0,0.0
1479082355.8,286047089.4,N,0.0,0.0
1479082375.7,286047089.7,N,0.0,0.0
1479082395.5,286047092.1,N,0.0,0.0
1479082415.3,286047093.5,N,0.0,0.0
1479082435.2,286047095.6,N,0.0,0.0
1479082455.0,286047094.4,N,0.0,0.0
1479082455.9,286047094.4,N,0.0,0.0
1479082475.8,286047094.5,N,0.0,0.0
1479082495.6,286047094.5,N,0.0,0.0
1479082515.4,286047094.7,N,0.0,0.0
1479082535.3,286047094.7,N,0.0,0.0
1479082555.1,286047091.3,N,0.0,0.0
1479082575.8,286047092.4,N,0.0,0.0
1479082595.7,286047090.0,N,0.0,0.0
1479082615.5,286047090.8,N,0.0,0.0
1479082635.4,286047087.7,N,0.0,0.0
1479082655.2,286047088.3,N,0.0,0.0
1479082675.0,286047087.9,N,0.0,0.0
1479082675.9,286047087.9,N,0.0,0.0
1479082695.8,286047087.9,N,0.0,0.0
1479082715.6,286047088.4,N,0.0,0.0
1479082735.4,286047088.4,N,0.0,0.0
1479082755.3,286047089.0,N,0.0,0.0
1479082775.1,286047088.2,N,0.0,0.0
1479082795.9,286047090.6,N,0.0,0.0
1479082815.7,286047090.4,N,0.0,0.0
1479082835.5,286047089.8,N,0.0,0.0
1479082855.4,286047089.4,N,0.0,0.0
1479082875.2,286047092.2,N,0.0,0.0
1479082895.0,286047091.9,N,0.0,0.0
1479082895.9,286047091.9,N,0.0,0.0
1479082915.8,286047089.6,N,0.0,0.0
1479082935.6,286047090.3,N,0.0,0.0
1479082955.5,286047090.5,N,0.0,0.0
1479082975.3,286047090.8,N,0.0,0.0
1479082995.1,286047087.0,N,0.0,0.0
1479083015.9,286047087.3,N,0.0,0.0
1479083035.7,286047086.7,N,0.0,0.0
1479083055.5,286047087.0,N,0.0,0.0
1479083075.4,286047087.3,N,0.0,0.0
1479083095.2,286047084.7,N,0.0,0.0
1479083115.0,286047085.0,N,0.0,0.0
1479083116.0,286047085.0,N,0.0,0.0
1479083135.8,286047085.9,N,0.0,0.0
1479083155.6,286047085.8,N,0.0,0.0
1479083175.5,286047085.2,N,0.0,0.0
1479083195.3,286047085.4,N,0.0,0.0
1479083215.1,286047085.6,N,0.0,0.0
1479083235.9,286047083.3,N,0.0,0.0
1479083255.7,286047084.0,N,0.0,0.0
1479083275.6,286047084.4,N,0.0,0.0
1479083295.4,286047084.4,N,0.0,0.0
1479083315.2,286047083.9,N,0.0,0.0
1479083335.1,286047082.4,N,0.0,0.0
1479083336.0,286047082.4,N,0.0,0.0
1479083355.8,286047078.2,N,0.0,0.0
1479083375.6,286047080.2,N,0.0,0.0
1479083395.5,286047080.1,N,0.0,0.0
1479083415.3,286047080.6,N,0.0,0.0
1479083435.1,286047078.1,N,0.0,0.0
1479083455.9,286047081.1,N,0.0,0.0
1479083475.7,286047080.9,N,0.0,0.0
1479083495.6,286047079.7,N,0.0,0.0
1479083515.4,286047082.5,N,0.0,0.0
1479083535.2,286047081.6,N,0.0,0.0
1479083555.1,286047084.0,N,0.0,0.0
1479083556.0,286047084.0,N,0.0,0.0
1479083575.8,286047083.7,N,0.0,0.0
1479083595.6,286047083.9,N,0.0,0.0
1479083615.5,286047084.4,N,0.0,0.0
1479083635.3,286047082.3,N,0.0,0.0
1479083655.2,286047082.8,N,0.0,0.0
1479083675.9,286047080.5,N,0.0,0.0
1479083695.7,286047080.3,N,0.0,0.0
1479083715.6,286047080.0,N,0.0,0.0
1479083735.4,286047078.3,N,0.0,0.0
1479083755.2,286047078.3,N,0.0,0.0
1479083775.1,286047079.4,N,0.0,0.0
1479083776.0,286047079.4,N,0.0,0.0
1479083795.8,286047079.3,N,0.0,0.0
1479083815.7,286047078.5,N,0.0,0.0
1479083835.5,286047078.5,N,0.0,0.0
1479083855.3,286047079.5,N,0.0,0.0
1479083875.2,286047079.0,N,0.0,0.0
1479083895.9,286047078.6,N,0.0,0.0
1479083915.7,286047078.3,N,0.0,0.0
1479083935.6,286047078.4,N,0.0,0.0
1479083955.4,286047078.4,N,0.0,0.0
1479083975.2,286047076.6,N,0.0,0.0
1479083995.1,286047079.2,N,0.0,0.0
1479083996.0,286047079.2,N,0.0,0.0
1479084015.8,286047077.1,N,0.0,0.0
1479084035.7,286047077.3,N,0.0,0.0
1479084055.5,286047077.7,N,0.0,0.0
1479084075.3,286047077.7,N,0.0,0.0
1479084095.2,286047077.3,N,0.0,0.0
1479084115.0,286047077.4,N,0.0,0.0
1479084115.9,286047077.4,N,0.0,0.0
1479084135.8,286047077.8,N,0.0,0.0
1479084155.6,286047075.1,N,0.0,0.0
1479084175.4,286047075.4,N,0.0,0.0
1479084195.3,286047075.5,N,0.0,0.0
1479084215.1,286047075.8,N,0.0,0.0
1479084235.8,286047073.3,N,0.0,0.0
1479084255.7,286047075.2,N,0.0,0.0
1479084275.5,286047077.9,N,0.0,0.0
1479084295.4,286047076.1,N,0.0,0.0
1479084315.2,286047076.1,N,0.0,0.0
1479084335.0,286047076.2,N,0.0,0.0
1479084335.9,286047076.2,N,0.0,0.0
1479084355.8,286047073.4,N,0.0,0.0
1479084375.6,286047076.4,N,0.0,0.0
1479084395.4,286047076.3,N,0.0,0.0
1479084415.3,286047076.1,N,0.0,0.0
1479084435.1,286047075.8,N,0.0,0.0
1479084455.9,286047076.4,N,0.0,0.0
1479084475.7,286047073.6,N,0.0,0.0
1479084495.5,286047074.6,N,0.0,0.0
1479084515.4,286047072.8,N,0.0,0.0
1479084535.2,286047073.1,N,0.0,0.0
1479084555.0,286047073.0,N,0.0,0.0
1479084555.9,286047073.0,N,0.0,0.0
1479084575.8,286047072.3,N,0.0,0.0
1479084595.6,286047072.0,N,0.0,0.0
1479084615.5,286047074.3,N,0.0,0.0
1479084635.3,286047074.7,N,0.0,0.0
1479084655.1,286047074.8,N,0.0,0.0
1479084675.9,286047071.8,N,0.0,0.0
1479084695.7,286047072.4,N,0.0,0.0
1479084715.5,286047072.0,N,0.0,0.0
1479084735.4,286047071.7,N,0.0,0.0
1479084755.2,286047074.4,N,0.0,0.0
1479084775.0,286047071.7,N,0.0,0.0
1479084776.0,286047071.7,N,0.0,0.0
1479084795.8,286047074.1,N,0.0,0.0
1479084815.6,286047076.4,N,0.0,0.0
1479084835.5,286047074.7,N,0.0,0.0
1479084855.3,286047072.0,N,0.0,0.0
1479084875.1,286047073.0,N,0.0,0.0
1479084895.9,286047070.1,N,0.0,0.0
1479084915.7,286047073.1,N,0.0,0.0
1479084935.6,286047073.1,N,0.0,0.0
1479084955.4,286047072.4,N,0.0,0.0
1479084975.2,286047074.8,N,0.0,0.0
1479084995.1,286047071.9,N,0.0,0.0
1479084996.0,286047071.9,N,0.0,0.0
1479085015.8,286047072.0,N,0.0,0.0
1479085035.6,286047070.4,N,0.0,0.0
1479085055.5,286047070.3,N,0.0,0.0
1479085075.3,286047070.6,N,0.0,0.0
1479085095.1,286047071.1,N,0.0,0.0
1479085115.9,286047071.0,N,0.0,0.0
1479085135.7,286047070.4,N,0.0,0.0
1479085155.6,286047072.7,N,0.0,0.0
1479085175.4,286047072.7,N,0.0,0.0
1479085195.2,286047072.7,N,0.0,0.0
